Location: Unspecified
(0.0000°N, 0.0000°E)
Time: 04:29:01
(UTC+00:00)

Vanguard 3 - All Passes

Search period start: 11 February 2016 00:00
Search period end: 21 February 2016 00:00
Orbit: 508 x 3268 km, 33.3° (Epoch: 09 February)

Date Brightness Start Highest point End Pass type
(mag) Time Alt. Az. Time Alt. Az. Time Alt. Az.
11 Feb - 07:15:59 10° NW 07:20:34 60° NE 07:28:15 10° ESE daylight
11 Feb - 09:27:45 10° W 09:33:49 31° SSW 09:43:37 10° SE daylight
11 Feb - 11:44:45 10° SW 11:51:13 16° S 11:59:26 10° SSE daylight
11 Feb - 14:03:11 10° SSW 14:12:55 17° S 14:23:50 10° SE daylight
11 Feb - 16:18:10 10° SSW 16:34:48 32° SSE 16:49:44 10° E daylight
11 Feb - 18:33:46 10° SW 18:53:34 70° SE 19:06:50 10° ENE visible
11 Feb - 20:52:58 10° WSW 21:08:49 47° NW 21:18:25 10° NNE visible
12 Feb - 06:04:37 10° N 06:07:50 21° NE 06:12:03 10° E daylight
12 Feb - 08:14:20 10° WNW 08:19:29 48° SSW 08:28:16 10° SE daylight
12 Feb - 10:29:04 10° SW 10:34:51 18° SSW 10:42:46 10° SSE daylight
12 Feb - 12:47:58 10° SSW 12:54:33 14° S 13:02:17 10° SSE daylight
12 Feb - 15:03:12 10° SSW 15:16:47 24° SSE 15:30:53 10° ESE daylight
12 Feb - 17:17:43 10° SW 17:36:54 50° SSE 17:52:01 10° ENE daylight
12 Feb - 19:34:46 10° WSW 19:53:54 74° NW 20:05:49 10° NE visible
12 Feb - 21:57:45 10° W 22:08:03 23° NW 22:15:12 10° N visible
13 Feb - 07:01:43 10° NW 07:06:03 82° NE 07:13:07 10° ESE daylight
13 Feb - 09:14:20 10° WSW 09:19:33 23° SSW 09:27:18 10° SSE daylight
13 Feb - 11:32:26 10° SSW 11:37:04 13° S 11:42:34 10° SSE daylight
13 Feb - 13:48:45 10° SSW 13:58:28 17° SSE 14:09:34 10° SE daylight
13 Feb - 16:02:28 10° SSW 16:19:35 36° SSE 16:35:32 10° E daylight
13 Feb - 18:17:47 10° SW 18:38:02 79° SE 18:52:16 10° ENE visible
13 Feb - 20:37:30 10° WSW 20:53:30 42° NW 21:03:42 10° NNE visible
14 Feb - 05:49:56 10° NNW 05:53:18 28° NE 05:57:44 10° E visible
14 Feb - 08:00:34 10° W 08:05:11 34° SSW 08:12:31 10° SE daylight
14 Feb - 10:16:38 10° SW 10:20:42 13° S 10:25:45 10° SSE daylight
14 Feb - 12:34:48 10° SSW 12:40:22 13° S 12:46:46 10° SSE daylight
14 Feb - 14:47:56 10° SSW 15:01:51 26° SSE 15:16:48 10° ESE daylight
14 Feb - 17:01:50 10° SW 17:21:22 57° SE 17:37:29 10° ENE daylight
14 Feb - 19:19:00 10° WSW 19:38:20 66° NW 19:51:06 10° NE visible
14 Feb - 21:43:04 10° W 21:53:07 20° NW 22:00:22 10° N visible
15 Feb - 06:47:35 10° WNW 06:51:40 70° SSW 06:57:58 10° SE daylight
15 Feb - 09:01:21 10° SW 09:05:24 16° SSW 09:10:48 10° SSE daylight
15 Feb - 11:21:49 10° S 11:23:00 10° S 11:24:14 10° S daylight
15 Feb - 13:34:07 10° SSW 13:43:56 18° SSE 13:55:23 10° ESE daylight
15 Feb - 15:46:50 10° SSW 16:04:11 41° SSE 16:21:05 10° E daylight
15 Feb - 18:01:56 10° SW 18:22:22 88° SE 18:37:30 10° NE visible
15 Feb - 20:22:11 10° W 20:38:10 37° NW 20:48:53 10° NNE visible
16 Feb - 05:35:21 10° NNW 05:38:50 39° NE 05:43:19 10° ESE visible
16 Feb - 07:47:02 10° WSW 07:50:59 24° SSW 07:56:39 10° SSE daylight
16 Feb - 12:21:25 10° S 12:26:11 12° SSE 12:31:34 10° SSE daylight
16 Feb - 14:32:39 10° SSW 14:46:46 29° SSE 15:02:31 10° E daylight
16 Feb - 16:46:06 10° SW 17:05:41 65° SE 17:22:45 10° ENE daylight
16 Feb - 19:03:22 10° WSW 19:22:43 59° NW 19:36:14 10° NE visible
16 Feb - 21:28:32 10° WNW 21:38:13 19° NW 21:45:30 10° N visible
17 Feb - 04:24:24 10° N 04:26:00 12° NE 04:27:37 10° ENE visible
17 Feb - 06:33:35 10° WNW 06:37:21 45° SSW 06:42:46 10° SE daylight
17 Feb - 08:49:26 10° SSW 08:51:18 11° SSW 08:53:26 10° S daylight
17 Feb - 13:19:20 10° SSW 13:29:17 19° SSE 13:41:12 10° ESE daylight
17 Feb - 15:31:17 10° SW 15:48:39 46° SE 16:06:26 10° E daylight
17 Feb - 17:46:15 10° SW 18:06:35 84° NW 18:22:36 10° NE daylight
17 Feb - 20:07:01 10° W 20:22:50 34° NW 20:34:00 10° NNE visible
18 Feb - 05:20:51 10° NW 05:24:27 60° NE 05:28:49 10° ESE visible
18 Feb - 07:33:54 10° WSW 07:36:50 16° SSW 07:40:33 10° SSE daylight
18 Feb - 12:07:40 10° S 12:11:56 12° SSE 12:16:45 10° SE daylight
18 Feb - 14:17:24 10° SSW 14:31:32 32° SSE 14:48:02 10° E daylight
18 Feb - 16:30:29 10° SW 16:49:52 72° SE 17:07:50 10° ENE daylight
18 Feb - 18:47:55 10° WSW 19:07:03 53° NW 19:21:15 10° NE visible
18 Feb - 21:14:08 10° WNW 21:23:25 17° NNW 21:30:37 10° N visible
19 Feb - 04:08:54 10° NNW 04:11:38 18° NNE 04:14:20 10° E visible
19 Feb - 06:19:45 10° W 06:23:07 29° SSW 06:27:30 10° SSE daylight
19 Feb - 13:04:27 10° SSW 13:14:30 20° SSE 13:26:56 10° ESE daylight
19 Feb - 15:15:51 10° SW 15:32:58 52° SE 15:51:35 10° ENE daylight
19 Feb - 17:30:43 10° WSW 17:50:43 76° NW 18:07:33 10° NE daylight
19 Feb - 19:52:03 10° W 20:07:33 30° NW 20:19:03 10° NNE visible
20 Feb - 05:06:28 10° WNW 05:10:07 84° SW 05:14:16 10° SE visible
20 Feb - 11:53:27 10° S 11:57:37 12° SSE 12:02:20 10° SE daylight
20 Feb - 14:02:12 10° SSW 14:16:11 35° SE 14:33:20 10° E daylight
20 Feb - 16:15:02 10° SW 16:33:58 80° SE 16:52:43 10° ENE daylight
20 Feb - 18:32:40 10° WSW 18:51:23 47° NW 19:06:10 10° NNE visible
20 Feb - 20:59:52 10° WNW 21:08:41 16° NNW 21:15:46 10° N visible
